Location: Unspecified
(0.0000°N, 0.0000°E)
Time: 00:32:20
(UTC+00:00)

Kosmos-86 - Visible Passes

Search period start: 18 May 2026 00:00
Search period end: 28 May 2026 00:00
Orbit: 1290 x 1623 km, 56.1° (Epoch: 17 May)

Date Brightness Start Highest point End Pass type
(mag) Time Alt. Az. Time Alt. Az. Time Alt. Az.
25 May ? 20:19:05 10° SSW 20:19:33 12° SSW 20:19:33 12° SSW visible
26 May ? 19:18:51 10° S 19:21:57 19° SSE 19:21:57 19° SSE visible
26 May ? 21:16:38 10° SW 21:33:49 13° NNE 21:34:32 10° NNE visible
27 May ? 20:14:28 10° SSW 20:31:05 16° NE 20:32:32 10° NE visible
27 May ? 22:25:44 17° NW 22:25:44 17° NW 22:29:30 10° NNW visible
